"TOA5","AWS1","CR1000","7964","CR1000.Std.14","CPU:AWS1_114.CR1","64363","TBL110"
"TIMESTAMP","RECORD","Wind_spd_WVc(1)","Wind_spd_WVc(2)","Air_Temp_Avg","Humidity_Avg","SW_upper_Wm2_Avg","Rain_Tot","Press_Avg","Issui_Tot","Depth_cm","SR50A_Raw","Quality","Ground_Temp_Avg(1)","Ground_Temp_Avg(2)","SW_lower_Wm2_Avg","Albedo_Avg","SWC_per(1)","SWC_per(2)","Period(1)","Period(2)"
"TS","RN","","","","","","","","","","","","","","","","","","",""
"","","WVc","WVc","Avg","Avg","Avg","Tot","Avg","Tot","Smp","Smp","Smp","Avg","Avg","Avg","Avg","Smp","Smp","Smp","Smp"
"2018-05-10 00:00:00",339901,0.151,239.5,4.586,100,0,0,866.4871,0,-2.754,3.181,190,9.84,9.92,0.621862,0,52.6,60.68,33.94,35.83
"2018-05-10 00:10:00",339902,0.401,291.1,4.392,100,0,0,866.4807,0,-2.962,3.185,194,9.84,9.9,0.47777,0,52.6,60.68,33.94,35.83
"2018-05-10 00:20:00",339903,0.75,297.8,4.188,100,0,0,866.4891,0,-3.269,3.188,179,9.87,9.88,0.4550338,0,52.6,60.62,33.94,35.82
"2018-05-10 00:30:00",339904,0.334,290.8,4.158,100,0,0,866.4871,0,-3.172,3.188,175,9.85,9.88,0.4550468,0,52.55,60.62,33.92,35.82
"2018-05-10 00:40:00",339905,0.375,282.7,4.112,100,0,0,866.4871,0,-3.299,3.189,187,9.8,9.87,0.4853896,0,52.6,60.62,33.94,35.82
"2018-05-10 00:50:00",339906,0.609,304.5,4.001,100,0,0,866.4681,0,-3.325,3.19,180,9.77,9.86,0.458847,0,52.55,60.62,33.92,35.82
"2018-05-10 01:00:00",339907,0.513,300.8,3.917,100,0,0,866.2565,0,-3.024,3.188,184,9.77,9.87,0.4550555,0,52.6,60.62,33.94,35.82
"2018-05-10 01:10:00",339908,0.396,312.9,3.811,100,0,0,866.2394,0,-3.426,3.192,186,9.8,9.89,0.4550557,0,52.55,60.56,33.92,35.81
"2018-05-10 01:20:00",339909,0.356,306,3.754,100,0,0,866.2468,0,-3.351,3.192,191,9.83,9.92,0.4285107,0,52.6,60.56,33.94,35.81
"2018-05-10 01:30:00",339910,0.802,304.7,3.645,100,0,0,866.2337,0,-3.401,3.193,174,9.75,9.94,0.4398871,0,52.6,60.56,33.94,35.81
"2018-05-10 01:40:00",339911,0.974,312.9,3.5,100,0,0,866.2208,0,-3.427,3.194,192,9.69,9.95,0.4588478,0,52.55,60.56,33.92,35.81
"2018-05-10 01:50:00",339912,0.872,297,3.482,100,0,0,866.2195,0,-3.075,3.191,194,9.69,9.94,0.4550557,0,52.55,60.56,33.92,35.81
"2018-05-10 02:00:00",339913,0.58,269.6,3.409,100,0,0,866.2327,0,-2.672,3.187,185,9.7,9.94,0.4702242,0,52.55,60.56,33.92,35.81
"2018-05-10 02:10:00",339914,0.96,321.3,3.358,100,0,0,866.1824,0,-2.596,3.186,191,9.72,9.92,0.7091284,0,52.49,60.56,33.91,35.81
"2018-05-10 02:20:00",339915,0.596,266.6,3.422,100,0,0,866.1684,0,-2.872,3.188,185,9.67,9.85,0.9101113,0,52.49,60.56,33.91,35.81
"2018-05-10 02:30:00",339916,0.396,189.5,3.504,99.5,0,0,866.1266,0,-2.646,3.186,194,9.61,9.8,0.9101113,0,52.49,60.5,33.91,35.79
"2018-05-10 02:40:00",339917,0.565,303.6,3.504,95.5,0,0,866.0295,0,-2.672,3.187,181,9.6,9.78,0.9101113,0,52.49,60.5,33.91,35.79
"2018-05-10 02:50:00",339918,0.396,291.7,3.417,96.3,0,0,866.0293,0,-2.572,3.186,181,9.6,9.78,0.9101113,0,52.55,60.5,33.92,35.79
"2018-05-10 03:00:00",339919,0.686,305.5,3.311,98.5,0,0,866.0379,0,-2.572,3.187,180,9.63,9.77,0.8646057,0,52.49,60.5,33.91,35.79
"2018-05-10 03:10:00",339920,0.354,273.1,3.295,99.9,0,0,866.0463,0,-2.924,3.19,184,9.65,9.78,0.8191001,0,52.49,60.5,33.91,35.79
"2018-05-10 03:20:00",339921,0.205,260.5,3.309,100,0,0,866.0714,0,-2.874,3.19,183,9.66,9.79,0.784971,0,52.49,60.5,33.91,35.79
"2018-05-10 03:30:00",339922,0.538,279.2,3.182,100,0,0,866.1132,0,-2.873,3.19,189,9.54,9.82,0.7167126,0,52.49,60.5,33.91,35.79
"2018-05-10 03:40:00",339923,0.572,283.2,3.001,100,0,0,866.118,0,-3.276,3.196,179,9.52,9.86,0.6977519,0,52.49,60.5,33.91,35.79
"2018-05-10 03:50:00",339924,0.792,259.3,2.896,100,0,0,866.125,0,-3.075,3.194,187,9.54,9.86,0.8646057,0,52.44,60.5,33.89,35.79
"2018-05-10 04:00:00",339925,0.553,290.3,2.911,100,0,0,866.0925,0,-3.451,3.197,192,9.57,9.86,0.9101113,0,52.49,60.44,33.91,35.78
"2018-05-10 04:10:00",339926,0.703,289.4,2.935,100,0,0,866.132,0,-3.175,3.195,183,9.55,9.86,0.9101113,0,52.49,60.5,33.91,35.79
"2018-05-10 04:20:00",339927,0.872,294.5,2.888,100,0,0,866.1124,0,-2.824,3.192,180,9.43,9.83,0.8570215,0,52.49,60.5,33.91,35.79
"2018-05-10 04:30:00",339928,1.145,297.3,2.809,100,0,0,866.0896,0,-2.973,3.193,194,9.43,9.79,0.758426,0,52.44,60.44,33.89,35.78
"2018-05-10 04:40:00",339929,0.789,318.7,2.84,100,0,0,866.077,0,-2.949,3.193,184,9.47,9.75,0.7660103,0,52.49,60.5,33.91,35.79
"2018-05-10 04:50:00",339930,1.09,292.9,2.817,100,0,0,866.1971,0,-2.773,3.192,182,9.51,9.71,0.9101113,0,52.44,60.5,33.89,35.79
"2018-05-10 05:00:00",339931,0.854,300.9,2.769,100,0.1140561,0,866.3256,0,-3.251,3.197,188,9.49,9.69,0.9101113,0.9,52.44,60.5,33.89,35.79
"2018-05-10 05:10:00",339932,0.482,293,2.765,100,0.7158003,0,866.3256,0,-3.476,3.198,188,9.4,9.69,0.9101113,1.371,52.44,60.5,33.89,35.79
"2018-05-10 05:20:00",339933,0.524,339.7,2.779,100,0.6961355,0,866.3299,0,-3.451,3.199,192,9.34,9.7,0.8721899,1.502,52.44,60.44,33.89,35.78
"2018-05-10 05:30:00",339934,0.667,301.2,2.61,100,4.141417,0,866.4816,0,-3.325,3.198,187,9.36,9.71,1.171768,0.388,52.44,60.44,33.89,35.78
"2018-05-10 05:40:00",339935,0.503,275.2,2.548,100,6.418605,0,866.5554,0,-2.321,3.189,185,9.39,9.73,1.486515,0.233,52.44,60.44,33.89,35.78
"2018-05-10 05:50:00",339936,0.357,272.3,2.357,100,9.171683,0,866.5786,0,-2.271,3.189,185,9.34,9.75,1.774717,0.212,52.44,60.44,33.89,35.78
"2018-05-10 06:00:00",339937,0.606,284.6,2.317,100,16.07011,0,866.7366,0,-2.747,3.194,183,9.27,9.77,2.377666,0.148,52.44,60.44,33.89,35.78
"2018-05-10 06:10:00",339938,0.538,275,2.226,100,15.27172,0,866.8315,0,-2.321,3.191,194,9.25,9.77,2.157722,0.144,52.44,60.44,33.89,35.78
"2018-05-10 06:20:00",339939,1.003,307.4,2.127,100,23.97538,0,866.9833,0,-2.371,3.192,185,9.29,9.77,3.500136,0.148,52.38,60.44,33.88,35.78
"2018-05-10 06:30:00",339940,0.926,306.8,2.037,100,52.39894,0,867.0823,0,-2.922,3.197,179,9.33,9.74,7.189879,0.137,52.44,60.44,33.89,35.78
"2018-05-10 06:40:00",339941,0.852,296.3,2.06,98.4,62.08585,0,867.2341,0,-2.27,3.191,189,9.31,9.69,8.365439,0.134,52.44,60.44,33.89,35.78
"2018-05-10 06:50:00",339942,0.681,298.8,2.106,95.2,44.31276,0,867.3437,0,-3.173,3.199,169,9.2,9.65,5.479629,0.123,52.44,60.44,33.89,35.78
"2018-05-10 07:00:00",339943,0.675,285.1,2.136,93.3,106.375,0,867.4828,0,-2.998,3.197,179,9.17,9.6,14.95237,0.139,52.38,60.44,33.88,35.78
"2018-05-10 07:10:00",339944,0.63,344.4,2.331,92.9,101.3015,0,867.4765,0,-3.073,3.196,191,9.17,9.6,13.92849,0.137,52.38,60.44,33.88,35.78
"2018-05-10 07:20:00",339945,0.334,294.7,2.562,92.9,117.5643,0,867.3627,0,-3.024,3.195,175,9.17,9.6,16.47681,0.14,52.44,60.44,33.89,35.78
"2018-05-10 07:30:00",339946,0.492,3.541,2.721,94,79.11953,0,867.4069,0,-3,3.195,174,9.19,9.6,10.95167,0.138,52.38,60.38,33.88,35.77
"2018-05-10 07:40:00",339947,0.408,27.35,2.582,96.2,44.74932,0,867.4976,0,-2.974,3.195,192,9.25,9.6,6.131875,0.139,52.38,60.38,33.88,35.77
"2018-05-10 07:50:00",339948,0.526,61.57,2.562,98.7,171.5246,0,867.5819,0,-3.174,3.195,174,9.25,9.61,20.22722,0.124,52.38,60.38,33.88,35.77
"2018-05-10 08:00:00",339949,0.566,130.2,3.175,91.6,507.4907,0,867.5186,0,-3.174,3.191,182,9.23,9.6,60.18111,0.12,52.44,60.38,33.89,35.77
"2018-05-10 08:10:00",339950,0.675,271.2,3.496,86.4,159.9263,0,867.5707,0,-3.2,3.192,186,9.19,9.6,21.86542,0.137,52.38,60.38,33.88,35.77
"2018-05-10 08:20:00",339951,0.571,277.6,3.098,86.1,69.82986,0,867.5782,0,-3.426,3.197,182,9.21,9.6,9.503078,0.136,52.44,60.38,33.89,35.77
"2018-05-10 08:30:00",339952,0.361,29.36,2.863,87.8,106.2216,0,867.5409,0,-3.251,3.196,174,9.17,9.61,15.88523,0.148,52.38,60.38,33.88,35.77
"2018-05-10 08:40:00",339953,0.761,275.9,3.19,85.7,304.2899,0,867.5235,0,-3.099,3.189,174,9.18,9.6,45.48661,0.149,52.38,60.33,33.88,35.75
"2018-05-10 08:50:00",339954,0.604,256.2,3.594,84.6,197.6828,0,867.5071,0,-3.477,3.194,192,9.16,9.6,28.87707,0.145,52.38,60.33,33.88,35.75
"2018-05-10 09:00:00",339955,0.904,279.3,3.608,82.4,343.3167,0,867.6846,0,-2.973,3.187,187,9.18,9.6,51.15205,0.148,52.38,60.33,33.88,35.75
"2018-05-10 09:10:00",339956,0.823,359.4,3.992,79.78,290.348,0,867.7572,0,-2.137,3.178,209,9.17,9.6,44.01094,0.15,52.38,60.33,33.88,35.75
"2018-05-10 09:20:00",339957,0.547,279.9,4.103,80.2,259.7127,0,867.8633,0,-2.694,3.183,182,9.14,9.57,39.56336,0.152,52.38,60.33,33.88,35.75
"2018-05-10 09:30:00",339958,0.706,355.3,3.902,77.04,205.3293,0,868.0042,0,-0.214,3.161,260,9.11,9.54,31.71018,0.154,52.38,60.33,33.88,35.75
"2018-05-10 09:40:00",339959,0.866,280.7,3.954,78.59,314.3997,0,868.0041,0,-0.432,3.162,279,9.09,9.52,49.36663,0.157,52.32,60.33,33.87,35.75
"2018-05-10 09:50:00",339960,0.988,301.9,3.656,83.1,378.0426,0,868.0041,0,-1.312,3.172,210,9.08,9.51,58.11049,0.154,52.38,60.33,33.88,35.75
"2018-05-10 10:00:00",339961,1.197,312.8,4.387,78.81,700.6231,0,867.9978,0,-2.944,3.184,187,9.05,9.51,111.1478,0.158,52.32,60.33,33.87,35.75
"2018-05-10 10:10:00",339962,0.993,311.5,4.796,78.2,831.1707,0,867.9831,0,-2.031,3.17,193,9.05,9.49,132.7629,0.157,52.32,60.33,33.87,35.75
"2018-05-10 10:20:00",339963,1.209,354.1,4.97,73.48,491.7211,0.5,867.8419,0,-0.018,3.153,258,9.1,9.47,77.57952,0.157,52.32,60.33,33.87,35.75
"2018-05-10 10:30:00",339964,0.781,353.6,4.933,77.64,444.9818,0,867.7897,0,0.361,3.149,284,9.13,9.47,72.77652,0.162,52.32,60.33,33.87,35.75
"2018-05-10 10:40:00",339965,1.156,322.4,4.901,74.35,573.7426,0,867.7167,0,-0.267,3.154,281,9.12,9.47,95.63907,0.162,52.38,60.27,33.88,35.74
"2018-05-10 10:50:00",339966,0.754,320.7,4.858,76.39,238.7757,0,867.6586,0,-1.078,3.164,249,9.12,9.49,38.78407,0.162,52.32,60.33,33.87,35.75
"2018-05-10 11:00:00",339967,1.128,341.8,4.896,79.3,614.7141,0,867.6971,0,-2.309,3.173,214,9.18,9.51,104.4869,0.168,52.32,60.33,33.87,35.75
"2018-05-10 11:10:00",339968,1.127,290.5,4.753,79.47,686.0615,0,867.7856,0,-4.052,3.192,184,9.24,9.51,119.7109,0.172,52.32,60.21,33.87,35.73
"2018-05-10 11:20:00",339969,1.1,292.6,5.207,76,974.3442,0,867.7116,0,-2.584,3.174,197,9.26,9.48,168.6809,0.17,52.32,60.21,33.87,35.73
"2018-05-10 11:30:00",339970,0.782,292.5,5.697,74.59,757.8806,0,867.8979,0,-1.292,3.159,234,9.28,9.47,129.8059,0.167,52.32,60.21,33.87,35.73
"2018-05-10 11:40:00",339971,0.744,288.2,5.932,71.49,720.5201,0,867.9375,0,-2.581,3.174,202,9.33,9.46,120.863,0.162,52.32,60.21,33.87,35.73
"2018-05-10 11:50:00",339972,1.083,327.4,5.046,73.65,321.4627,0,868.0053,0,-2.596,3.176,196,9.37,9.45,53.32641,0.164,52.27,60.21,33.85,35.73
"2018-05-10 12:00:00",339973,0.953,290.5,5.141,75.82,568.6234,0,868.0723,0,-1.599,3.169,223,9.39,9.43,97.59032,0.167,52.27,60.21,33.85,35.73
"2018-05-10 12:10:00",339974,0.716,208,5.24,78,616.7562,0,867.948,0,-1.013,3.159,212,9.39,9.41,104.5358,0.167,52.27,60.15,33.85,35.71
"2018-05-10 12:20:00",339975,0.559,251.2,5.445,74.9,519.035,0,868.0322,0,-2.73,3.176,214,9.46,9.41,88.2411,0.162,52.27,60.15,33.85,35.71
"2018-05-10 12:30:00",339976,0.876,260.8,5.67,71.9,713.9092,0,867.9122,0,-3.127,3.178,193,9.49,9.41,124.8617,0.164,52.32,60.15,33.87,35.71
"2018-05-10 12:40:00",339977,0.795,301.6,5.306,76.11,178.1106,0,867.9143,0,-3.227,3.186,179,9.54,9.4,26.85853,0.149,52.27,60.15,33.85,35.71
"2018-05-10 12:50:00",339978,0.639,254.6,4.71,79.43,417.2023,0,867.9101,0,-2.974,3.181,188,9.58,9.38,69.86706,0.166,52.32,60.15,33.87,35.71
"2018-05-10 13:00:00",339979,0.761,255,5.534,76.9,793.1546,0,867.9059,0,-2.352,3.169,221,9.66,9.42,140.6775,0.174,52.27,60.15,33.85,35.71
"2018-05-10 13:10:00",339980,0.893,255.8,5.525,76.23,841.1735,0,867.731,0,-2.002,3.166,197,9.73,9.43,149.9138,0.174,52.27,60.15,33.85,35.71
"2018-05-10 13:20:00",339981,0.954,345.6,5.626,72.4,964.797,0,867.6594,0,-1.159,3.157,190,9.74,9.42,173.8747,0.176,52.27,60.15,33.85,35.71
"2018-05-10 13:30:00",339982,0.794,170.8,6.959,66.7,908.3035,0,867.5625,0,-2.904,3.168,207,9.8,9.38,159.5955,0.17,52.27,60.09,33.85,35.7
"2018-05-10 13:40:00",339983,0.758,232,6.318,64.76,384.3878,0,867.4193,0,-1.801,3.165,192,9.85,9.36,61.20396,0.154,52.27,60.15,33.85,35.71
"2018-05-10 13:50:00",339984,0.783,248.5,6.133,65.5,502.4794,0,867.4109,0,-3.215,3.181,200,9.87,9.36,85.25095,0.161,52.27,60.09,33.85,35.7
"2018-05-10 14:00:00",339985,0.655,237,5.409,68.42,332.885,0,867.4004,0,-0.208,3.15,216,9.91,9.37,54.52042,0.159,52.27,60.15,33.85,35.71
"2018-05-10 14:10:00",339986,0.541,196.1,5.354,70.46,295.8251,0,867.3751,0,-0.461,3.153,238,10.01,9.38,49.77571,0.161,52.21,60.09,33.84,35.7
"2018-05-10 14:20:00",339987,0.778,198.5,6.273,67.15,627.718,0,867.1834,0,-0.627,3.15,245,10.02,9.37,101.8516,0.155,52.21,60.15,33.84,35.71
"2018-05-10 14:30:00",339988,1.023,283.8,5.393,68.63,227.6697,0,867.2276,0,-3.267,3.184,190,10.07,9.38,36.08025,0.158,52.21,60.09,33.84,35.7
"2018-05-10 14:40:00",339989,0.862,23.16,4.992,74.84,325.0632,0,867.2656,0,-2.188,3.172,209,10.15,9.38,50.37513,0.16,52.21,60.09,33.84,35.7
"2018-05-10 14:50:00",339990,1.529,291.8,5.033,73.15,517.725,0,867.3224,0,-2.614,3.177,189,10.19,9.38,65.5143,0.135,52.16,60.09,33.83,35.7
"2018-05-10 15:00:00",339991,0.817,311.7,5.406,67.59,794.975,0,867.3477,0,-2.192,3.168,191,10.29,9.44,74.61076,0.093,52.16,60.09,33.83,35.7
"2018-05-10 15:10:00",339992,1.236,302.7,5.547,61.29,397.1806,0,867.2318,0,-2.533,3.177,190,10.37,9.45,33.30091,0.107,52.16,60.09,33.83,35.7
"2018-05-10 15:20:00",339993,1.203,284.7,5.132,62.25,134.9147,0,867.1202,0,-0.966,3.158,195,10.41,9.46,32.6573,0.242,52.16,60.03,33.83,35.69
"2018-05-10 15:30:00",339994,1.069,254.6,5.343,63,152.656,0,867.0661,0,-0.114,3.152,213,10.35,9.47,28.01785,0.181,52.16,60.03,33.83,35.69
"2018-05-10 15:40:00",339995,1.064,276.3,5.491,61.58,158.8845,0,867.1756,0,-1.848,3.165,201,10.45,9.47,29.09459,0.181,52.16,60.03,33.83,35.69
"2018-05-10 15:50:00",339996,0.892,318.8,5.821,60.38,184.4089,0,867.1779,0,-2.553,3.17,185,10.49,9.49,36.6005,0.198,52.1,60.03,33.81,35.69
"2018-05-10 16:00:00",339997,0.976,352.4,6.214,60.81,154.4893,0,867.0111,0,-1.213,3.157,210,10.47,9.47,30.03859,0.195,52.1,60.03,33.81,35.69
"2018-05-10 16:10:00",339998,0.788,337.6,6.094,60.92,157.3634,0,867.2265,0,-1.564,3.159,199,10.56,9.47,27.81337,0.176,52.1,59.97,33.81,35.67
"2018-05-10 16:20:00",339999,1.104,331.2,5.742,59.44,114.0014,0,867.2787,0,-2.711,3.176,184,10.6,9.48,17.90791,0.156,52.05,60.03,33.8,35.69
"2018-05-10 16:30:00",340000,0.995,271.8,5.367,62.3,88.6346,0,867.3782,0,-1.049,3.162,205,10.59,9.5,13.7759,0.155,52.1,59.97,33.81,35.67
"2018-05-10 16:40:00",340001,0.609,221.2,4.931,64.93,70.76535,0,867.4941,0,-2.79,3.179,200,10.59,9.51,10.85316,0.153,52.1,59.97,33.81,35.67
"2018-05-10 16:50:00",340002,0.751,262.7,5.182,63.4,102.757,0,867.4941,0,-0.667,3.156,252,10.62,9.51,17.15732,0.167,52.05,59.97,33.8,35.67
"2018-05-10 17:00:00",340003,0.836,315.8,5.459,60.58,85.35561,0,867.4794,0,-2.636,3.175,206,10.67,9.51,14.17394,0.166,52.1,59.97,33.81,35.67
"2018-05-10 17:10:00",340004,0.626,99.9,5.457,62.96,93.28964,0,867.4984,0,-2.357,3.172,210,10.71,9.51,15.63341,0.167,52.05,59.97,33.8,35.67
"2018-05-10 17:20:00",340005,1.104,271.2,5.203,61.25,66.10637,0,867.5026,0,-2.716,3.18,214,10.72,9.51,9.916827,0.141,52.05,59.97,33.8,35.67
"2018-05-10 17:30:00",340006,0.791,73.28,4.527,61.81,36.06874,0,867.4984,0,-2.49,3.179,243,10.72,9.51,4.62482,0.128,52.05,59.91,33.8,35.66
"2018-05-10 17:40:00",340007,0.461,166.6,4.282,64.67,35.26299,0,867.4984,0,-2.697,3.183,234,10.71,9.51,4.882629,0.138,51.99,59.91,33.79,35.66
"2018-05-10 17:50:00",340008,0.776,223,4.04,67.09,27.4046,0,867.4984,0,-3.182,3.188,194,10.7,9.52,3.84407,0.139,52.05,59.91,33.8,35.66
"2018-05-10 18:00:00",340009,0.911,286.3,4.201,66.78,23.49097,0,867.5004,0,-3.103,3.186,195,10.68,9.55,3.673861,0.157,52.05,59.91,33.8,35.66
"2018-05-10 18:10:00",340010,0.215,209.8,4.14,70,18.16084,0,867.7328,0,-0.522,3.162,276,10.71,9.58,2.881764,0.159,51.99,59.91,33.79,35.66
"2018-05-10 18:20:00",340011,0.404,265.4,3.986,71,13.58404,0,867.7015,0,-0.956,3.167,250,10.72,9.59,2.328294,0.172,51.99,59.91,33.79,35.66
"2018-05-10 18:30:00",340012,0.507,278.6,3.76,72.83,8.211953,0,867.7701,0,-1.514,3.175,222,10.67,9.6,1.585094,0.194,51.99,59.91,33.79,35.66
"2018-05-10 18:40:00",340013,0.32,301,3.54,74.32,2.827796,0,867.9249,0,-1.664,3.176,205,10.63,9.6,0.8190978,0.348,51.99,59.91,33.79,35.66
"2018-05-10 18:50:00",340014,0.29,260.2,3.3,76.45,0,0,868.0692,0,-3.979,3.201,181,10.66,9.6,0.1327244,0,51.99,59.85,33.79,35.64
"2018-05-10 19:00:00",340015,0.04,183.2,2.782,80.9,0,0,867.9462,0,-2.898,3.195,181,10.65,9.6,0,0,51.99,59.85,33.79,35.64
"2018-05-10 19:10:00",340016,0.042,251,2.173,84.3,0,0,868.0323,0,-3.073,3.198,187,10.56,9.6,0,0,51.99,59.85,33.79,35.64
"2018-05-10 19:20:00",340017,0.043,45.55,1.966,85.9,0,0,868.1298,0,-3.825,3.208,190,10.63,9.61,0,0,51.99,59.85,33.79,35.64
"2018-05-10 19:30:00",340018,0.104,191.3,1.599,91.6,0,0,868.3153,0,-4.273,3.215,176,10.49,9.62,0,0,51.99,59.85,33.79,35.64
"2018-05-10 19:40:00",340019,0.218,190.3,1.187,97.6,0,0,868.349,0,-4.12,3.216,179,10.54,9.64,0,0,51.99,59.85,33.79,35.64
"2018-05-10 19:50:00",340020,0.27,188.8,0.934,100,0,0,868.349,0,-4.32,3.218,188,10.44,9.66,0,0,51.94,59.79,33.77,35.63
"2018-05-10 20:00:00",340021,0.239,187.7,0.813,100,0,0,868.5682,0,-4.075,3.216,190,10.43,9.67,0.1137664,0,51.99,59.79,33.79,35.63
"2018-05-10 20:10:00",340022,0.19,187.6,0.727,100,0,0,868.6019,0,-3.43,3.211,193,10.39,9.7,0.2275433,0,51.94,59.85,33.77,35.64
"2018-05-10 20:20:00",340023,0.339,187.6,0.542,100,0,0,868.6019,0,-3.414,3.211,189,10.39,9.72,0.2275578,0,51.94,59.85,33.77,35.64
"2018-05-10 20:30:00",340024,0.361,187.3,0.494,100,0,0,868.7411,0,-3.29,3.21,185,10.41,9.74,0.2313588,0,51.94,59.85,33.77,35.64
"2018-05-10 20:40:00",340025,0.496,187.2,0.448,100,0,0,868.8486,0,-3.24,3.21,194,10.3,9.75,0.3603144,0,51.94,59.79,33.77,35.63
"2018-05-10 20:50:00",340026,0.328,187.1,0.415,100,0,0,868.8549,0,-2.899,3.206,194,10.3,9.78,0.3565328,0,51.94,59.79,33.77,35.63
"2018-05-10 21:00:00",340027,0.363,187,0.339,100,0,0,868.8597,0,-3.107,3.21,188,10.26,9.8,0.2806903,0,51.88,59.79,33.76,35.63
"2018-05-10 21:10:00",340028,0.294,193.9,0.345,100,0,0,868.873,0,-3.209,3.211,199,10.26,9.82,0.436226,0,51.94,59.79,33.77,35.63
"2018-05-10 21:20:00",340029,0.459,190.2,0.241,100,0,0,868.8987,0,-3.16,3.21,193,10.19,9.82,0.322431,0,51.88,59.79,33.76,35.63
"2018-05-10 21:30:00",340030,0.32,190.1,0.223,100,0,0,868.9913,0,-3.062,3.21,202,10.14,9.83,0.3983029,0,51.94,59.79,33.77,35.63
"2018-05-10 21:40:00",340031,0.424,188.6,0.027,100,0,0,868.9236,0,-2.76,3.208,222,10.11,9.83,0.2276042,0,51.94,59.79,33.77,35.63
"2018-05-10 21:50:00",340032,0.403,196.2,0.006,100,0,0,868.9764,0,-2.763,3.207,200,10.12,9.84,0.3869289,0,51.88,59.79,33.76,35.63
"2018-05-10 22:00:00",340033,0.321,188.9,0.154,99.9,0,0,868.9415,0,-2.614,3.205,205,10.04,9.83,0.5159059,0,51.94,59.73,33.77,35.62
"2018-05-10 22:10:00",340034,0.239,189,0.239,97.3,0,0,868.9347,0,-2.612,3.206,213,10.01,9.84,0.470385,0,51.88,59.73,33.76,35.62
"2018-05-10 22:20:00",340035,0.346,188.9,0.155,97.6,0,0,868.9575,0,-2.764,3.206,206,9.95,9.85,0.4324507,0,51.94,59.73,33.77,35.62
"2018-05-10 22:30:00",340036,0.193,188.9,0.137,94.1,0,0,869.1887,0,-2.862,3.209,188,9.9,9.86,0.4058967,0,51.94,59.73,33.77,35.62
"2018-05-10 22:40:00",340037,0.412,190.3,-0.04,92.7,0,0,869.0341,0,-3.11,3.212,193,9.87,9.86,0.2958873,0,51.88,59.73,33.76,35.62
"2018-05-10 22:50:00",340038,0.524,191,-0.137,91.1,0,0,868.9572,0,-2.662,3.207,206,9.82,9.85,0.3603756,0,51.94,59.73,33.77,35.62
"2018-05-10 23:00:00",340039,0.479,188.3,-0.18,91.2,0,0,868.9467,0,-2.659,3.209,186,9.79,9.85,0.2920939,0,51.94,59.67,33.77,35.6
"2018-05-10 23:10:00",340040,0.57,187.9,-0.272,95.1,0,0,868.9472,0,-2.21,3.203,194,9.77,9.83,0.2731267,0,51.94,59.73,33.77,35.62
"2018-05-10 23:20:00",340041,0.431,191.2,0.025,96.3,0,0,868.9621,0,-2.413,3.204,176,9.72,9.85,0.5652206,0,51.88,59.67,33.76,35.6
"2018-05-10 23:30:00",340042,0.3,184.6,0.143,92.1,0,0,868.7302,0,-2.219,3.194,200,9.69,9.81,0.569014,0,51.88,59.67,33.76,35.6
"2018-05-10 23:40:00",340043,0.083,14.95,1.901,69.26,0,0,868.6943,0,-1.72,3.181,198,9.65,9.8,2.067418,0,51.94,59.67,33.77,35.6
"2018-05-10 23:50:00",340044,0.162,31.34,3.702,46.58,0,0,868.6943,0,-2.419,3.18,197,9.61,9.79,2.731267,0,51.88,59.67,33.76,35.6
